Time,TemperatureF,DewpointF,PressureIn,WindDirection,WindDirectionDegrees,WindSpeedMPH,WindSpeedGustMPH,Humidity,HourlyPrecipIn,Conditions,Clouds,dailyrainin,SoftwareType,DateUTC
2013-03-06 13:40:00,34.0,34.0,28.88,ENE,67,10.0,12.0,100,0.17,,,1.01,Weather View 32 v70,2013-03-06 18:40:00,
2013-03-06 13:41:00,34.0,34.0,28.88,NNE,22,12.0,17.0,100,0.17,,,1.01,Weather View 32 v70,2013-03-06 18:41:00,
2013-03-06 13:46:00,34.0,34.0,28.88,NNE,22,17.0,23.0,100,0.16,,,1.03,Weather View 32 v70,2013-03-06 18:46:00,
2013-03-06 13:51:00,34.0,34.0,28.88,NW,315,1.0,31.0,100,0.17,,,1.04,Weather View 32 v70,2013-03-06 18:51:00,
2013-03-06 13:56:00,34.0,34.0,28.87,North,360,1.0,31.0,100,0.17,,,1.06,Weather View 32 v70,2013-03-06 18:56:00,
2013-03-06 14:01:00,34.0,34.0,28.88,NW,315,6.0,31.0,100,0.17,,,1.07,Weather View 32 v70,2013-03-06 19:01:00,
2013-03-06 14:06:00,34.0,34.0,28.89,NE,45,11.0,31.0,100,0.17,,,1.08,Weather View 32 v70,2013-03-06 19:06:00,
2013-03-06 14:11:00,34.0,34.0,28.89,North,360,8.0,31.0,100,0.16,,,1.10,Weather View 32 v70,2013-03-06 19:11:00,
2013-03-06 14:16:00,34.0,34.0,28.89,NNE,22,19.0,31.0,100,0.16,,,1.10,Weather View 32 v70,2013-03-06 19:16:00,
2013-03-06 14:21:00,35.0,35.0,28.89,NE,45,12.0,31.0,100,0.17,,,1.12,Weather View 32 v70,2013-03-06 19:21:00,
2013-03-06 14:26:00,35.0,35.0,28.90,North,360,10.0,31.0,100,0.15,,,1.12,Weather View 32 v70,2013-03-06 19:26:00,
2013-03-06 14:31:00,35.0,35.0,28.90,North,360,9.0,32.0,100,0.15,,,1.13,Weather View 32 v70,2013-03-06 19:31:00,
2013-03-06 14:36:00,35.0,35.0,28.90,NE,45,7.0,32.0,100,0.15,,,1.14,Weather View 32 v70,2013-03-06 19:36:00,
2013-03-06 14:41:00,35.0,35.0,28.91,NE,45,18.0,32.0,100,0.13,,,1.15,Weather View 32 v70,2013-03-06 19:41:00,
2013-03-06 14:46:00,35.0,35.0,28.92,NE,45,16.0,32.0,100,0.14,,,1.16,Weather View 32 v70,2013-03-06 19:46:00,
2013-03-06 14:51:00,35.0,35.0,28.92,NNW,337,12.0,32.0,100,0.12,,,1.16,Weather View 32 v70,2013-03-06 19:51:00,
2013-03-06 14:56:00,35.0,35.0,28.93,North,360,7.0,32.0,100,0.10,,,1.17,Weather View 32 v70,2013-03-06 19:56:00,
2013-03-06 15:01:00,35.0,35.0,28.93,NW,315,1.0,32.0,100,0.11,,,1.18,Weather View 32 v70,2013-03-06 20:01:00,
2013-03-06 15:06:00,35.0,35.0,28.93,NNW,337,0.0,32.0,100,0.10,,,1.18,Weather View 32 v70,2013-03-06 20:06:00,
2013-03-06 15:11:00,35.0,35.0,28.93,WNW,292,5.0,32.0,100,0.10,,,1.19,Weather View 32 v70,2013-03-06 20:11:00,
2013-03-06 15:16:00,35.0,35.0,28.94,NW,315,3.0,32.0,100,0.10,,,1.20,Weather View 32 v70,2013-03-06 20:16:00,
2013-03-06 15:21:00,35.0,35.0,28.94,NNW,337,3.0,32.0,100,0.09,,,1.21,Weather View 32 v70,2013-03-06 20:21:00,
2013-03-06 15:26:00,35.0,35.0,28.95,NW,315,0.0,32.0,100,0.10,,,1.22,Weather View 32 v70,2013-03-06 20:26:00,
2013-03-06 15:31:00,36.0,36.0,28.95,SSE,157,0.0,28.0,100,0.11,,,1.24,Weather View 32 v70,2013-03-06 20:31:00,
2013-03-06 15:36:00,36.0,36.0,28.96,NNW,337,4.0,29.0,100,0.10,,,1.24,Weather View 32 v70,2013-03-06 20:36:00,
2013-03-06 15:41:00,36.0,36.0,28.96,North,360,10.0,29.0,100,0.11,,,1.25,Weather View 32 v70,2013-03-06 20:41:00,
2013-03-06 15:46:00,36.0,36.0,28.96,NNE,22,26.0,29.0,100,0.09,,,1.26,Weather View 32 v70,2013-03-06 20:46:00,
2013-03-06 15:51:00,36.0,36.0,28.97,North,360,7.0,32.0,100,0.10,,,1.26,Weather View 32 v70,2013-03-06 20:51:00,
2013-03-06 15:56:00,36.0,36.0,28.97,North,360,12.0,32.0,100,0.10,,,1.26,Weather View 32 v70,2013-03-06 20:56:00,
2013-03-06 16:01:00,36.0,36.0,28.97,North,360,12.0,32.0,100,0.09,,,1.27,Weather View 32 v70,2013-03-06 21:01:00,
2013-03-06 16:06:00,36.0,36.0,28.97,NNW,337,4.0,32.0,100,0.10,,,1.28,Weather View 32 v70,2013-03-06 21:06:00,
2013-03-06 16:11:00,36.0,36.0,28.98,North,360,6.0,32.0,100,0.09,,,1.28,Weather View 32 v70,2013-03-06 21:11:00,
2013-03-06 16:16:00,36.0,36.0,28.98,NE,45,7.0,32.0,100,0.09,,,1.29,Weather View 32 v70,2013-03-06 21:16:00,
2013-03-06 16:21:00,36.0,36.0,28.98,North,360,17.0,32.0,100,0.09,,,1.30,Weather View 32 v70,2013-03-06 21:21:00,
2013-03-06 16:26:00,36.0,36.0,28.99,NNW,337,3.0,32.0,100,0.10,,,1.32,Weather View 32 v70,2013-03-06 21:26:00,
2013-03-06 16:31:00,36.0,36.0,28.99,North,360,7.0,32.0,100,0.08,,,1.32,Weather View 32 v70,2013-03-06 21:31:00,
2013-03-06 16:37:00,36.0,36.0,28.99,NNW,337,7.0,32.0,100,0.08,,,1.32,Weather View 32 v70,2013-03-06 21:37:00,
2013-03-06 16:42:00,36.0,36.0,29.00,NNE,22,0.0,32.0,100,0.08,,,1.33,Weather View 32 v70,2013-03-06 21:42:00,
2013-03-06 16:47:00,36.0,36.0,29.00,NNE,22,12.0,32.0,100,0.07,,,1.33,Weather View 32 v70,2013-03-06 21:47:00,
2013-03-06 16:52:00,37.0,37.0,29.01,NE,45,4.0,28.0,100,0.08,,,1.34,Weather View 32 v70,2013-03-06 21:52:00,
2013-03-06 16:57:00,37.0,37.0,29.02,North,360,6.0,28.0,100,0.08,,,1.34,Weather View 32 v70,2013-03-06 21:57:00,
2013-03-06 17:02:00,37.0,37.0,29.02,NNE,22,10.0,28.0,100,0.07,,,1.34,Weather View 32 v70,2013-03-06 22:02:00,
2013-03-06 17:07:00,37.0,37.0,29.02,NNW,337,8.0,28.0,100,0.06,,,1.34,Weather View 32 v70,2013-03-06 22:07:00,
2013-03-06 17:12:00,37.0,37.0,29.02,NE,45,11.0,28.0,100,0.06,,,1.34,Weather View 32 v70,2013-03-06 22:12:00,
2013-03-06 17:17:00,37.0,37.0,29.02,NE,45,0.0,28.0,100,0.05,,,1.34,Weather View 32 v70,2013-03-06 22:17:00,
2013-03-06 17:22:00,37.0,37.0,29.03,NNE,22,8.0,28.0,100,0.04,,,1.34,Weather View 32 v70,2013-03-06 22:22:00,
2013-03-06 17:27:00,37.0,37.0,29.03,NE,45,7.0,23.0,100,0.02,,,1.34,Weather View 32 v70,2013-03-06 22:27:00,
2013-03-06 17:32:00,37.0,37.0,29.03,NE,45,4.0,23.0,100,0.02,,,1.34,Weather View 32 v70,2013-03-06 22:32:00,
2013-03-06 17:37:00,37.0,37.0,29.04,North,360,9.0,23.0,100,0.02,,,1.34,Weather View 32 v70,2013-03-06 22:37:00,
2013-03-06 17:42:00,37.0,37.0,29.04,NNW,337,2.0,23.0,100,0.01,,,1.34,Weather View 32 v70,2013-03-06 22:42:00,
2013-03-06 17:47:00,37.0,37.0,29.04,NNW,337,12.0,23.0,100,0.01,,,1.34,Weather View 32 v70,2013-03-06 22:47:00,
2013-03-06 17:52:00,37.0,37.0,29.05,NNE,22,6.0,23.0,100,0.00,,,1.34,Weather View 32 v70,2013-03-06 22:52:00,
2013-03-06 17:57:00,37.0,37.0,29.05,ENE,67,7.0,22.0,100,0.00,,,1.34,Weather View 32 v70,2013-03-06 22:57:00,
2013-03-06 18:02:00,37.0,37.0,29.06,North,360,14.0,22.0,100,0.00,,,1.34,Weather View 32 v70,2013-03-06 23:02:00,
2013-03-06 18:07:00,37.0,37.0,29.06,North,360,2.0,22.0,100,0.00,,,1.34,Weather View 32 v70,2013-03-06 23:07:00,
2013-03-06 18:12:00,37.0,37.0,29.06,NNE,22,6.0,22.0,100,0.01,,,1.35,Weather View 32 v70,2013-03-06 23:12:00,
2013-03-06 18:17:00,37.0,37.0,29.06,NE,45,0.0,20.0,100,0.01,,,1.35,Weather View 32 v70,2013-03-06 23:17:00,
2013-03-06 18:22:00,37.0,37.0,29.07,NE,45,5.0,20.0,100,0.01,,,1.35,Weather View 32 v70,2013-03-06 23:22:00,
2013-03-06 18:27:00,37.0,37.0,29.07,NNW,337,8.0,20.0,100,0.01,,,1.35,Weather View 32 v70,2013-03-06 23:27:00,
2013-03-06 18:32:00,37.0,37.0,29.08,East,90,4.0,20.0,100,0.01,,,1.35,Weather View 32 v70,2013-03-06 23:32:00,
2013-03-06 18:37:00,37.0,37.0,29.08,NNE,22,1.0,20.0,100,0.01,,,1.35,Weather View 32 v70,2013-03-06 23:37:00,
2013-03-06 18:42:00,37.0,37.0,29.08,NE,45,11.0,20.0,100,0.01,,,1.35,Weather View 32 v70,2013-03-06 23:42:00,
2013-03-06 18:47:00,37.0,37.0,29.08,North,360,2.0,20.0,100,0.01,,,1.35,Weather View 32 v70,2013-03-06 23:47:00,
2013-03-06 18:52:00,37.0,37.0,29.08,NW,315,9.0,20.0,100,0.01,,,1.35,Weather View 32 v70,2013-03-06 23:52:00,
2013-03-06 18:57:00,37.0,37.0,29.08,NNW,337,3.0,20.0,100,0.01,,,1.35,Weather View 32 v70,2013-03-06 23:57:00,
2013-03-06 19:02:00,37.0,37.0,29.08,NNW,337,2.0,20.0,100,0.01,,,1.35,Weather View 32 v70,2013-03-07 00:02:00,
2013-03-06 19:07:00,37.0,37.0,29.09,NNE,22,2.0,20.0,100,0.01,,,1.35,Weather View 32 v70,2013-03-07 00:07:00,
2013-03-06 19:12:00,37.0,37.0,29.09,North,360,7.0,20.0,100,0.00,,,1.35,Weather View 32 v70,2013-03-07 00:12:00,
2013-03-06 19:17:00,38.0,38.0,29.09,North,360,4.0,20.0,100,0.00,,,1.35,Weather View 32 v70,2013-03-07 00:17:00,
2013-03-06 19:22:00,38.0,37.5,29.09,North,360,10.0,20.0,98,0.00,,,1.35,Weather View 32 v70,2013-03-07 00:22:00,
2013-03-06 19:27:00,38.0,37.5,29.09,NNE,22,9.0,24.0,98,0.00,,,1.35,Weather View 32 v70,2013-03-07 00:27:00,
2013-03-06 19:32:00,38.0,37.5,29.09,NW,315,5.0,24.0,98,0.00,,,1.35,Weather View 32 v70,2013-03-07 00:32:00,
2013-03-06 19:37:00,38.0,37.0,29.09,NNW,337,4.0,24.0,96,0.00,,,1.35,Weather View 32 v70,2013-03-07 00:37:00,
2013-03-06 19:42:00,38.0,37.2,29.10,North,360,11.0,24.0,97,0.00,,,1.35,Weather View 32 v70,2013-03-07 00:42:00,
2013-03-06 19:47:00,38.0,37.0,29.10,North,360,14.0,24.0,96,0.00,,,1.35,Weather View 32 v70,2013-03-07 00:47:00,
2013-03-06 19:52:00,38.0,37.0,29.10,NW,315,9.0,24.0,96,0.00,,,1.35,Weather View 32 v70,2013-03-07 00:52:00,
2013-03-06 19:57:00,38.0,36.7,29.10,NE,45,9.0,24.0,95,0.00,,,1.35,Weather View 32 v70,2013-03-07 00:57:00,
2013-03-06 20:02:00,38.0,37.0,29.10,NNE,22,11.0,24.0,96,0.00,,,1.35,Weather View 32 v70,2013-03-07 01:02:00,
2013-03-06 20:07:00,38.0,37.0,29.10,ENE,67,3.0,24.0,96,0.00,,,1.35,Weather View 32 v70,2013-03-07 01:07:00,
2013-03-06 20:12:00,38.0,37.0,29.10,NNE,22,7.0,24.0,96,0.00,,,1.35,Weather View 32 v70,2013-03-07 01:12:00,
2013-03-06 20:17:00,38.0,37.0,29.10,NNW,337,1.0,24.0,96,0.00,,,1.35,Weather View 32 v70,2013-03-07 01:17:00,
2013-03-06 20:22:00,38.0,37.0,29.10,NNE,22,7.0,24.0,96,0.00,,,1.35,Weather View 32 v70,2013-03-07 01:22:00,
2013-03-06 20:27:00,38.0,37.0,29.10,NW,315,2.0,21.0,96,0.00,,,1.35,Weather View 32 v70,2013-03-07 01:27:00,
2013-03-06 20:32:00,38.0,36.7,29.10,NW,315,1.0,21.0,95,0.00,,,1.35,Weather View 32 v70,2013-03-07 01:32:00,
2013-03-06 20:37:00,38.0,36.7,29.11,NW,315,5.0,21.0,95,0.00,,,1.35,Weather View 32 v70,2013-03-07 01:37:00,
2013-03-06 20:42:00,38.0,36.7,29.11,NNW,337,5.0,21.0,95,0.00,,,1.35,Weather View 32 v70,2013-03-07 01:42:00,
2013-03-06 20:47:00,38.0,36.7,29.10,North,360,5.0,21.0,95,0.00,,,1.35,Weather View 32 v70,2013-03-07 01:47:00,
2013-03-06 20:52:00,37.0,35.7,29.11,North,360,9.0,21.0,95,0.00,,,1.35,Weather View 32 v70,2013-03-07 01:52:00,
2013-03-06 20:57:00,37.0,35.7,29.11,NNE,22,4.0,21.0,95,0.00,,,1.35,Weather View 32 v70,2013-03-07 01:57:00,
2013-03-06 21:02:00,37.0,35.4,29.10,WNW,292,6.0,21.0,94,0.00,,,1.35,Weather View 32 v70,2013-03-07 02:02:00,
2013-03-06 21:07:00,37.0,35.2,29.10,NNE,22,0.0,13.0,93,0.00,,,1.35,Weather View 32 v70,2013-03-07 02:07:00,
2013-03-06 21:12:00,37.0,35.2,29.10,NNE,22,8.0,13.0,93,0.00,,,1.35,Weather View 32 v70,2013-03-07 02:12:00,
2013-03-06 21:17:00,37.0,35.2,29.10,NNW,337,0.0,13.0,93,0.00,,,1.35,Weather View 32 v70,2013-03-07 02:17:00,
2013-03-06 21:22:00,37.0,35.2,29.10,NNE,22,0.0,13.0,93,0.00,,,1.35,Weather View 32 v70,2013-03-07 02:22:00,
2013-03-06 21:27:00,37.0,35.2,29.10,NNE,22,3.0,13.0,93,0.00,,,1.35,Weather View 32 v70,2013-03-07 02:27:00,
2013-03-06 21:32:00,37.0,35.2,29.10,NW,315,3.0,13.0,93,0.00,,,1.35,Weather View 32 v70,2013-03-07 02:32:00,
2013-03-06 21:37:00,37.0,34.9,29.10,NW,315,4.0,13.0,92,0.00,,,1.35,Weather View 32 v70,2013-03-07 02:37:00,
2013-03-06 21:42:00,37.0,34.6,29.10,NNW,337,0.0,13.0,91,0.00,,,1.35,Weather View 32 v70,2013-03-07 02:42:00,
2013-03-06 21:47:00,37.0,34.6,29.10,NNE,22,0.0,13.0,91,0.00,,,1.35,Weather View 32 v70,2013-03-07 02:47:00,
2013-03-06 21:52:00,37.0,34.6,29.10,NNW,337,2.0,13.0,91,0.00,,,1.35,Weather View 32 v70,2013-03-07 02:52:00,
2013-03-06 21:57:00,37.0,34.3,29.10,WNW,292,2.0,13.0,90,0.00,,,1.35,Weather View 32 v70,2013-03-07 02:57:00,
2013-03-06 22:02:00,37.0,34.1,29.11,NW,315,0.0,13.0,89,0.00,,,1.35,Weather View 32 v70,2013-03-07 03:02:00,
2013-03-06 22:07:00,37.0,33.8,29.11,NNW,337,2.0,13.0,88,0.00,,,1.35,Weather View 32 v70,2013-03-07 03:07:00,
2013-03-06 22:12:00,37.0,33.8,29.11,NNE,22,2.0,13.0,88,0.00,,,1.35,Weather View 32 v70,2013-03-07 03:12:00,
2013-03-06 22:17:00,37.0,34.1,29.12,NW,315,2.0,13.0,89,0.00,,,1.35,Weather View 32 v70,2013-03-07 03:17:00,
2013-03-06 22:22:00,37.0,34.1,29.12,NW,315,1.0,13.0,89,0.00,,,1.35,Weather View 32 v70,2013-03-07 03:22:00,
2013-03-06 22:27:00,37.0,33.8,29.12,NNE,22,1.0,13.0,88,0.00,,,1.35,Weather View 32 v70,2013-03-07 03:27:00,
2013-03-06 22:32:00,37.0,33.5,29.12,NNW,337,1.0,13.0,87,0.00,,,1.35,Weather View 32 v70,2013-03-07 03:32:00,
2013-03-06 22:37:00,37.0,33.2,29.12,NNE,22,0.0,13.0,86,0.00,,,1.35,Weather View 32 v70,2013-03-07 03:37:00,
2013-03-06 22:42:00,37.0,32.9,29.12,NNW,337,2.0,13.0,85,0.00,,,1.35,Weather View 32 v70,2013-03-07 03:42:00,
2013-03-06 22:47:00,37.0,32.9,29.12,NW,315,0.0,13.0,85,0.00,,,1.35,Weather View 32 v70,2013-03-07 03:47:00,
2013-03-06 22:52:00,37.0,32.9,29.13,NNW,337,0.0,13.0,85,0.00,,,1.35,Weather View 32 v70,2013-03-07 03:52:00,
2013-03-06 22:57:00,37.0,32.9,29.13,North,360,2.0,13.0,85,0.00,,,1.35,Weather View 32 v70,2013-03-07 03:57:00,
2013-03-06 23:02:00,38.0,33.0,29.13,NW,315,9.0,13.0,82,0.00,,,1.35,Weather View 32 v70,2013-03-07 04:02:00,
2013-03-06 23:07:00,38.0,32.7,29.13,NNW,337,2.0,13.0,81,0.00,,,1.35,Weather View 32 v70,2013-03-07 04:07:00,
2013-03-06 23:12:00,38.0,32.7,29.13,NW,315,7.0,13.0,81,0.00,,,1.35,Weather View 32 v70,2013-03-07 04:12:00,
2013-03-06 23:17:00,38.0,32.4,29.13,NNW,337,2.0,13.0,80,0.00,,,1.35,Weather View 32 v70,2013-03-07 04:17:00,
2013-03-06 23:22:00,38.0,32.1,29.13,NNW,337,3.0,13.0,79,0.00,,,1.35,Weather View 32 v70,2013-03-07 04:22:00,
2013-03-06 23:27:00,38.0,32.4,29.14,NNW,337,0.0,13.0,80,0.00,,,1.35,Weather View 32 v70,2013-03-07 04:27:00,
2013-03-06 23:32:00,38.0,32.1,29.13,NW,315,6.0,14.0,79,0.00,,,1.35,Weather View 32 v70,2013-03-07 04:32:00,
2013-03-06 23:37:00,38.0,31.7,29.14,NNE,22,4.0,14.0,78,0.00,,,1.35,Weather View 32 v70,2013-03-07 04:37:00,
2013-03-06 23:42:00,38.0,31.4,29.14,NNE,22,3.0,14.0,77,0.00,,,1.35,Weather View 32 v70,2013-03-07 04:42:00,
2013-03-06 23:47:00,38.0,31.4,29.14,NW,315,1.0,14.0,77,0.00,,,1.35,Weather View 32 v70,2013-03-07 04:47:00,
2013-03-06 23:52:00,38.0,31.7,29.14,North,360,1.0,14.0,78,0.00,,,1.35,Weather View 32 v70,2013-03-07 04:52:00,
2013-03-06 23:57:00,38.0,31.7,29.14,NNW,337,0.0,14.0,78,0.00,,,1.35,Weather View 32 v70,2013-03-07 04:57:00,